[Iaude] MPEC W17: 2023 VT10 [a=0.90,e=0.69,i=39.3,H=22.2]
    mpec at marsden.cfa.harvard.edu 
    mpec at marsden.cfa.harvard.edu
       
    Fri Nov 17 16:36:37 EST 2023
    
    
  
M.P.E.C. 2023-W17                             Issued 2023 November 17, 21:34 UT
     The Minor Planet Electronic Circulars contain information on unusual
         minor planets, routine data on comets and natural satellites,
         and occasional editorial announcements.  They are published
    on behalf of Division F of the International Astronomical Union by the
          Minor Planet Center, Smithsonian Astrophysical Observatory,
                          Cambridge, MA 02138, U.S.A.
			  
             Prepared using the Tamkin Foundation Computer Network
                              MPC at CFA.HARVARD.EDU
            URL https://www.minorplanetcenter.net/    ISSN 1523-6714
                                   2023 VT10                                    
Observations:
     K23V10T* C2023 11 15.48668305 10 26.418+04 12 49.65         18.1 GVEW017U68
     K23V10T  C2023 11 15.49002405 10 24.791+04 11 28.79         18.1 GVEW017U68
     K23V10T  C2023 11 15.50787205 10 16.099+04 04 16.47         18.1 GVEW017U68
     K23V10T  C2023 11 15.51121405 10 14.456+04 02 55.35         18.1 GVEW017U68
     K23V10T KC2023 11 15.91200605 07 06.84 +01 13 09.0          17.5 GVEW017L01
     K23V10T KC2023 11 15.91349105 07 06.05 +01 12 29.8          17.5 GVEW017L01
     K23V10T KC2023 11 15.91497305 07 05.25 +01 11 50.4          17.5 GVEW017L01
     K23V10T KB2023 11 15.91585 05 07 04.78 +01 11 26.2          17.6 RZEW017106
     K23V10T KC2023 11 15.91645405 07 04.48 +01 11 11.1          17.8 GVEW017L01
     K23V10T KC2023 11 15.91793605 07 03.69 +01 10 31.5          17.7 GVEW017L01
     K23V10T KB2023 11 15.91858 05 07 03.32 +01 10 13.7          17.8 RZEW017106
     K23V10T KB2023 11 15.92131 05 07 01.90 +01 09 01.0          17.7 RZEW017106
     K23V10T KB2023 11 15.92404 05 07 00.44 +01 07 48.6          17.7 RZEW017106
     K23V10T 1C2023 11 15.94891 05 06 47.15 +00 56 39.1          18.6 VXEW017033
     K23V10T 1C2023 11 15.94920 05 06 46.99 +00 56 31.4          18.5 VXEW017033
     K23V10T 1C2023 11 15.94948 05 06 46.84 +00 56 23.9          18.5 VXEW017033
     K23V10T KC2023 11 15.96943 05 06 36.454+00 47 35.99         18.2 VqEW017L47
     K23V10T KC2023 11 15.97156 05 06 35.198+00 46 37.16         18.2 VqEW017L47
     K23V10T KC2023 11 15.97370 05 06 34.013+00 45 39.60         18.4 VqEW017L47
     K23V10T KC2023 11 15.98844 05 06 26.030+00 39 07.38         18.0 VqEW017L47
     K23V10T KC2023 11 15.99058 05 06 24.766+00 38 08.05         18.2 VqEW017L47
     K23V10T KC2023 11 15.99271 05 06 23.698+00 37 09.77         18.3 VqEW017L47
     K23V10T KC2023 11 16.01129 05 06 13.63 +00 28 45.6          18.6 GVEW017M29
     K23V10T KC2023 11 16.01720 05 06 10.29 +00 26 04.0          19.0 GVEW017M29
     K23V10T KC2023 11 16.02310 05 06 07.15 +00 23 24.0          18.5 GVEW017M29
     K23V10T |C2023 11 16.21744005 04 25.390-01 04 29.60         17.97VuEW017807
     K23V10T |C2023 11 16.22233005 04 22.560-01 06 48.30         18.05VuEW017807
     K23V10T |C2023 11 16.22722005 04 19.730-01 09 07.20         18.08VuEW017807
     K23V10T |C2023 11 16.23048005 04 17.830-01 10 40.00         18.04VuEW017807
     K23V10T  C2023 11 16.24506105 04 09.341-01 17 34.40         17.93oVEW017W68
     K23V10T KB2023 11 16.26259 05 04 01.41 -01 27 51.4          18.0 GXEW017H36
     K23V10T  C2023 11 16.26608905 03 57.043-01 27 35.50         17.81oVEW017W68
     K23V10T KB2023 11 16.26783 05 03 58.38 -01 30 21.4          17.9 GXEW017H36
     K23V10T  C2023 11 16.27155905 03 53.861-01 30 12.31         17.98oVEW017W68
     K23V10T KB2023 11 16.27299 05 03 55.40 -01 32 49.1          17.9 GXEW017H36
     K23V10T KC2023 11 16.27727005 03 52.19 -01 34 53.0          18.2 GVEW017H21
     K23V10T KC2023 11 16.27919905 03 51.07 -01 35 48.4          18.0 GVEW017H21
     K23V10T KC2023 11 16.28112805 03 49.94 -01 36 43.9          18.1 GVEW017H21
     K23V10T KC2023 11 16.28247805 03 49.16 -01 37 22.7          18.0 GVEW017H21
     K23V10T  C2023 11 16.70712604 59 44.599-05 10 10.75         18.1 GVEW017O85
     K23V10T  C2023 11 16.70911 04 59 43.40 -05 11 34.1          18.4 RoEW017C94
     K23V10T  C2023 11 16.70963 04 59 43.01 -05 11 52.2          17.2 RoEW017C94
     K23V10T  C2023 11 16.70972904 59 42.888-05 11 32.40         17.6 GVEW017O85
     K23V10T  C2023 11 16.71233504 59 41.230-05 12 54.54         17.9 GVEW017O85
     K23V10T  C2023 11 16.71249 04 59 41.18 -05 13 21.0          18.5 RoEW017C94
     K23V10T  C2023 11 16.71493804 59 39.564-05 14 16.12         18.0 GVEW017O85
     K23V10T  C2023 11 16.71754404 59 37.879-05 15 38.16         18.1 GVEW017O85
     K23V10T  C2023 11 16.72275604 59 34.504-05 18 22.94         17.9 GVEW017O85
     K23V10T  C2023 11 16.72536004 59 32.823-05 19 44.74         17.9 GVEW017O85
     K23V10T  C2023 11 16.73057104 59 29.418-05 22 29.53         18.3 GVEW017O85
     K23V10T  C2023 11 16.73317704 59 27.753-05 23 51.80         18.1 GVEW017O85
     K23V10T  C2023 11 16.73578004 59 26.061-05 25 13.61         18.2 GVEW017O85
     K23V10T 0B2023 11 16.90022 04 57 47.07 -06 51 32.1          18.2 VZEW017M49
     K23V10T 0B2023 11 16.90234 04 57 45.65 -06 52 41.6          18.1 VZEW017M49
     K23V10T 0B2023 11 16.90444 04 57 44.23 -06 53 50.3          18.0 VZEW017M49
     K23V10T KB2023 11 16.94769504 57 15.81 -07 19 25.0          17.6 GXEW017958
     K23V10T KB2023 11 16.95057304 57 13.87 -07 20 59.7          17.8 GXEW017958
     K23V10T KB2023 11 16.95342404 57 11.99 -07 22 34.1          17.8 GXEW017958
     K23V10T KB2023 11 16.97329 04 56 57.45 -07 33 41.7          18.3 GVEW017L65
     K23V10T KB2023 11 16.97805 04 56 54.23 -07 36 21.2          17.6 GVEW017L65
     K23V10T KB2023 11 16.98283 04 56 50.93 -07 38 58.4          17.7 GVEW017L65
     K23V10T KC2023 11 17.10515904 55 27.612-08 47 24.11         17.5 GVEW017J95
     K23V10T KC2023 11 17.10737304 55 26.086-08 48 39.42         18.0 GVEW017J95
     K23V10T KC2023 11 17.10956604 55 24.530-08 49 54.05         18.1 GVEW017J95
     K23V10T KC2023 11 17.11180804 55 22.961-08 51 10.08         17.7 GVEW017J95
     K23V10T KC2023 11 17.25218 04 53 53.230-10 11 30.77         19.2 GVEW017U52
     K23V10T KC2023 11 17.25380 04 53 52.075-10 12 27.47         19.4 GVEW017U52
     K23V10T KC2023 11 17.25542 04 53 50.938-10 13 24.60               VEW017U52
     K23V10T KC2023 11 17.32706 04 52 58.572-10 55 25.07         19.3 GVEW017U52
     K23V10T KC2023 11 17.32843 04 52 57.559-10 56 13.74         18.3 GVEW017U52
     K23V10T KC2023 11 17.32980 04 52 56.558-10 57 02.16         17.7 GVEW017U52
     K23V10T KC2023 11 17.61387204 49 24.35 -13 46 07.6          18.0 GVEW017474
     K23V10T KC2023 11 17.61428804 49 24.03 -13 46 23.0          17.9 GVEW017474
     K23V10T KC2023 11 17.61512104 49 23.35 -13 46 53.8          17.9 GVEW017474
     K23V10T KC2023 11 17.61595204 49 22.69 -13 47 24.8          18.1 GVEW017474
     K23V10T KC2023 11 17.61634804 49 22.38 -13 47 39.5          17.8 GVEW017474
Observer details:
033 Karl Schwarzschild Observatory, Tautenburg.  Observers S. Melnikov, C.
    Hogner, F. Ludwig, M. Hartmann, B. Stecklum.  Measurer B. Stecklum.
    1.34-m f/3 Schmidt + CCD.
106 Crni Vrh.  Observer H. Mikuz.  0.60-m f/3.3 reflector + CMO.
474 Mount John Observatory, Lake Tekapo.  Observers A. C. Gilmore, P. M.
    Kilmartin.  Measurer P. M. Kilmartin.  1.0-m f/7.7 reflector + CCD.
807 Cerro Tololo Observatory, La Serena.  Observers T. Linder, R. Holmes, L.
    Horn.  0.61-m f/11 Ritchey-Chretien + CCD.
958 Observatoire de Dax.  Observer P. Dupouy.  0.50-m f/4.5 Reflector + CMO.
C94 MASTER-II Observatory, Tunka.  Observers Y. Kechin, V. Lipunov, E.
    Gorbovskoy, N. Tiurina, P. Balanutsa, V. Kornilov, A. Kuznetsov, O. Gress,
    D. Zimnukhov, S. Yazev, N. Budnev.  0.4-m f/2.5 reflector   CCD.
H21 Astronomical Research Observatory, Westfield.  Observer R. Holmes.
    Measurers T. Linder, R. Holmes, L. Horn.  0.76-m f/3.0 astrograph + CCD.
H36 Sandlot Observatory, Scranton.  Observer G. Hug.  0.56-m f/4.8 reflector +
    CMO.
J95 Great Shefford.  Observer P. Birtwhistle.  0.41-m f/6.3 Schmidt-Cassegrain
    + CCD.
L01 Visnjan Observatory, Tican.  Observer K. Korlevic.  1.0-m f/2.9 reflector
    + CCD.
L47 Osservatorio Astronomico, Piobbico.  Observers A. Teseo, A. Annamelia.
    Measurer A. Teseo.  0.2-m f/7.2 Schmidt-Cassegrain + CCD.
L65 Bredenkamp Observatory, Bremen.  Observer H. Duin.  0.23-m f/6.3 reflector
    + CMO.
M29 O.M.Ni.A. Observatory, Cesena.  Observers V. Tinella, A. De Pieri.  0.40-m
    f/8 reflector + CCD.
M49 IAS Remote Observatory, Hakos.  Observers D. Husar, M. Junius.  Measurer
    D. Husar.  0.25-m f/4.5 reflector + CMO.
O85 LiShan Observatory, Lintong.  Observers Y. Yu, K. Tang, A. Pomazan.
    0.50-m f/7.0 Cassegrain + CCD.
U52 Shasta Valley Observatory, Grenada.  Observers J. E. Rogers, B. Haeusler.
    Measurers J. E. Rogers, D. Parrott.  0.30-m f/5.2 Helin Telescope + CCD.
U68 JPL SynTrack Robotic Telescope, Auberry.  Observers N. Saini, C. Zhai, R.
    Trahan, M. Zhan, M. Shao.  0.28-m Reflector + CCD.
W68 ATLAS Chile, Rio Hurtado.  Observers L. Denneau, R. Siverd, J. Tonry, H.
    Weiland.  Measurers L. Denneau, N. Erasmus, A. Fitzsimmons, A. Lawrence,
    J. Robinson, R. Siverd, J. Tonry, H. Weiland.  0.5-m Reflector + CCD.
Orbital elements:
2023 VT10                                                Earth MOID = 0.0680 AU
Epoch 2023 Sept. 13.0 TT = JDT 2460200.5                Bell                    
M 219.80854              (2000.0)            P               Q                  
n   1.14878441     Peri.  326.70661     -0.84586621     +0.17943655             
a   0.9029084      Node   232.51618     -0.23307583     -0.97139425             
e   0.6935924      Incl.   39.27237     -0.47977704     +0.15554977             
mailing list